Weather History for Doha International Airport, Qatar

Change the Weather History Date:

Saturday, December 7, 2013

  Actual Average Record
Temperature  
Mean Temperature 74 °F -  
Max Temperature 80 °F 74 °F - ()
Min Temperature 68 °F 58 °F - ()
Cooling Degree Days 9    
Growing Degree Days 24 (Base 50)    
Moisture  
Dew Point 62 °F    
Average Humidity 65    
Maximum Humidity 88    
Minimum Humidity 38    
Precipitation  
Precipitation 0.00 in 0.02 in - ()
Sea Level Pressure  
Sea Level Pressure 30.05 in    
Wind  
Wind Speed 8 mph ()    
Max Wind Speed 16 mph    
Max Gust Speed -    
Visibility 5.5 miles    
Events      
T = Trace of Precipitation, MM = Missing Value Source: Averaged Metar Reports

Daily Weather History Graph

Daily Weather History Graph

Search for Another Location

Airport:

Trip Planner

Search our weather history database for the weather conditions in past years. The results will help you decide how hot, cold, wet, or windy it might be!

Date:

Astronomy

Dec. 07, 2013 Rise Set
Actual Time 6:06 AM AST 4:43 PM AST
Civil Twilight 5:41 AM AST 5:08 PM AST
Nautical Twilight 5:13 AM AST 5:37 PM AST
Astronomical Twilight 4:45 AM AST 6:05 PM AST
Moon 9:54 AM AST (12/7) 9:37 PM AST (12/7)
Length of Visible Light 11h 27m
Length of Day
10h 37m
Waxing Crescent, 25% of the Moon is Illuminated
Dec 7
Waxing Crescent
Dec 9
First Quarter
Dec 17
Full
Dec 25
Last Quarter
Jan 1
New

Hourly Weather History & Observations

Time (AST) Temp. Heat Index Dew Point Humidity Pressure Visibility Wind Dir Wind Speed Gust Speed Precip Events Conditions
12:00 AM 71 °F - 56 °F 49% 30.00 in 6 mi WNW 3.5 mph - -   Clear
12:00 AM 71.6 °F - 55.4 °F 57% 29.98 in - WNW 3.5 mph - N/A   Clear
12:30 AM 71.6 °F - 57.2 °F 60% 30.01 in - WNW 5.8 mph - N/A   Clear
1:00 AM 87.8 °F 87.1 °F 59.0 °F 38% 30.01 in - NW 6.9 mph - N/A   Clear
2:00 AM 69.8 °F - 60.8 °F 73% 29.98 in 5.0 mi NW 6.9 mph - N/A   Unknown
2:30 AM 69.8 °F - 62.6 °F 78% 30.01 in 4.3 mi WNW 5.8 mph - N/A   Unknown
3:00 AM 70 °F - 63 °F 73% 30.01 in 4 mi NW 5.8 mph - -   Haze
3:00 AM 69.8 °F - 62.6 °F 78% 30.01 in 4.3 mi NW 5.8 mph - N/A   Unknown
3:30 AM 69.8 °F - 62.6 °F 78% 30.01 in 4.3 mi West 3.5 mph - N/A   Unknown
4:00 AM 69.8 °F - 62.6 °F 78% 30.01 in 4.3 mi WNW 5.8 mph - N/A   Unknown
4:30 AM 69.8 °F - 62.6 °F 78% 30.01 in 4.3 mi WNW 4.6 mph - N/A   Unknown
5:00 AM 69.8 °F - 62.6 °F 78% 30.01 in 4.3 mi West 4.6 mph - N/A   Unknown
5:30 AM 68.0 °F - 64.4 °F 88% 30.04 in 3.7 mi West 4.6 mph - N/A   Unknown
6:00 AM 68.0 °F - 64.4 °F 88% 30.04 in 3.7 mi West 5.8 mph - N/A   Unknown
6:30 AM 68.0 °F - 64.4 °F 88% 30.04 in 3.7 mi WNW 4.6 mph - N/A   Unknown
7:00 AM 69.8 °F - 64.4 °F 83% 30.06 in 5.0 mi WNW 5.8 mph - N/A   Unknown
7:30 AM 71.6 °F - 64.4 °F 78% 30.06 in 5.0 mi NW 5.8 mph - N/A   Unknown
8:00 AM 75.2 °F - 64.4 °F 69% 30.06 in 5.6 mi NNW 10.4 mph - N/A   Unknown
8:30 AM 75.2 °F - 64.4 °F 69% 30.06 in - NNW 12.7 mph - N/A   Clear
9:00 AM 76 °F - 65 °F 61% 30.09 in 6 mi NNW 12.7 mph - -   Clear
9:00 AM 77.0 °F - 64.4 °F 65% 30.06 in - NNW 12.7 mph - N/A   Clear
9:30 AM 78.8 °F - 64.4 °F 61% 30.06 in - North 13.8 mph - N/A   Clear
10:00 AM 78.8 °F - 64.4 °F 61% 30.06 in - North 15.0 mph - N/A   Clear
10:30 AM 78.8 °F - 64.4 °F 61% 30.06 in - North 15.0 mph - N/A   Clear
11:00 AM 80.6 °F 81.8 °F 62.6 °F 54% 30.06 in - North 13.8 mph - N/A   Clear
12:00 PM 79 °F - 65 °F 55% 30.06 in 7 mi North 15.0 mph - -   Scattered Clouds
12:00 PM 78.8 °F - 66.2 °F 65% 30.04 in 6.2 mi North 15.0 mph - N/A   Partly Cloudy
1:00 PM 78.8 °F - 66.2 °F 65% 30.04 in 6.2 mi North 15.0 mph - N/A   Partly Cloudy
2:00 PM 78.8 °F - 66.2 °F 65% 30.01 in 6.2 mi North 15.0 mph - N/A   Partly Cloudy
2:30 PM 78.8 °F - 64.4 °F 61% 30.01 in 6.2 mi North 15.0 mph - N/A   Partly Cloudy
3:00 PM 79 °F - 64 °F 51% 30.03 in 7 mi North 16.1 mph - -   Scattered Clouds
3:00 PM 78.8 °F - 64.4 °F 61% 30.01 in 6.2 mi North 16.1 mph - N/A   Partly Cloudy
3:30 PM 78.8 °F - 64.4 °F 61% 30.04 in - North 15.0 mph - N/A   Clear
4:00 PM 77.0 °F - 64.4 °F 65% 30.04 in - North 15.0 mph - N/A   Clear
4:30 PM 77.0 °F - 62.6 °F 61% 30.04 in - North 13.8 mph - N/A   Clear
5:00 PM 75.2 °F - 62.6 °F 65% 30.04 in - North 11.5 mph - N/A   Clear
5:30 PM 75.2 °F - 59.0 °F 57% 30.06 in - NNW 11.5 mph - N/A   Clear
6:00 PM 74 °F - 58 °F 47% 30.08 in 9 mi NNW 11.5 mph - -  
6:00 PM 75.2 °F - 57.2 °F 53% 30.06 in - NNW 11.5 mph - N/A   Clear
6:30 PM 73.4 °F - 57.2 °F 57% 30.06 in - NNW 11.5 mph - N/A   Clear
7:00 PM 73.4 °F - 59.0 °F 61% 30.09 in - NNW 11.5 mph - N/A   Clear
7:30 PM 73.4 °F - 59.0 °F 61% 30.09 in - NNW 12.7 mph - N/A   Clear
8:00 PM 73.4 °F - 59.0 °F 61% 30.09 in - NNW 11.5 mph - N/A   Clear
8:30 PM 73.4 °F - 59.0 °F 61% 30.09 in - NNW 12.7 mph - N/A   Clear
9:00 PM 72 °F - 59 °F 54% 30.10 in 9 mi NNW 12.7 mph - -  
9:00 PM 71.6 °F - 59.0 °F 64% 30.09 in - NNW 12.7 mph - N/A   Clear
10:00 PM 71.6 °F - 57.2 °F 60% 30.09 in - NW 8.1 mph - N/A   Clear
11:00 PM 71.6 °F - 59.0 °F 64% 30.09 in - NNW 6.9 mph - N/A   Clear
11:30 PM 71.6 °F - 57.2 °F 60% 30.09 in - NNW 6.9 mph - N/A   Clear